Tallinn, Estonia

8:35 PM EEST on April 19, 2018 (GMT +0300)
Ulemiste

Weather History for EETN - January, 2018

Change the Weather History Date:

Friday, January 12, 2018

  Actual Average Record
Temperature  
Mean Temperature 22 °F -  
Max Temperature 26 °F 28 °F 41 °F (2005)
Min Temperature 17 °F 18 °F 5 °F (2013)
Degree Days  
Heating Degree Days 44    
Moisture  
Dew Point 19 °F    
Average Humidity 86    
Maximum Humidity 100    
Minimum Humidity 64    
Precipitation  
Precipitation 0.04 in 0.05 in - ()
Sea Level Pressure  
Sea Level Pressure 30.72 in    
Wind  
Wind Speed 6 mph ()    
Max Wind Speed 12 mph    
Max Gust Speed -    
Visibility 8.9 miles    
Events      
Averages and records for this station are not official NWS values.
T = Trace of Precipitation, MM = Missing Value Source: Averaged Metar Reports

Daily Weather History Graph

Daily Weather History Graph

Search for Another Location

Airport or City:

Astronomy

Jan. 12, 2018 Rise Set
Actual Time 9:08 AM EET 3:50 PM EET
Civil Twilight 8:15 AM EET 4:42 PM EET
Nautical Twilight 7:22 AM EET 5:35 PM EET
Astronomical Twilight 6:33 AM EET 6:25 PM EET
Moon 4:26 AM EET (1/12) 1:03 PM EET (1/12)
Length of Visible Light 8h 26m
Length of Day
6h 42m
Waning Crescent, 18% of the Moon is Illuminated
Jan 12
Waning Crescent
Jan 17
New
Jan 25
First Quarter
Jan 31
Full
Feb 7
Last Quarter

Hourly Weather History & Observations

Time (EET) Temp. Windchill Dew Point Humidity Pressure Visibility Wind Dir Wind Speed Gust Speed Precip Events Conditions
12:00 AM 28 °F - 21 °F 65% 30.58 in 12 mi ESE 8.9 mph - -   Clear
12:20 AM 28.4 °F 19.1 °F 21.2 °F 74% 30.57 in 6.2 mi ESE 10.4 mph - N/A   Overcast
12:50 AM 26.6 °F 16.2 °F 21.2 °F 80% 30.57 in 6.2 mi East 11.5 mph - N/A   Overcast
1:00 AM 27 °F - 20 °F 64% 30.60 in 12 mi SE 8.9 mph - -   Clear
1:20 AM 26.6 °F 16.8 °F 21.2 °F 80% 30.57 in 6.2 mi ESE 10.4 mph - N/A   Overcast
1:50 AM 26.6 °F 18.2 °F 21.2 °F 80% 30.57 in 6.2 mi ESE 8.1 mph - N/A   Overcast
2:00 AM 27 °F - 20 °F 65% 30.60 in 12 mi ESE 6.7 mph - -   Partly Cloudy
2:20 AM 23.0 °F 14.7 °F 19.4 °F 86% 30.60 in 6.2 mi East 6.9 mph - N/A   Scattered Clouds
2:50 AM 23.0 °F 14.7 °F 19.4 °F 86% 30.60 in - East 6.9 mph - N/A   Clear
3:00 AM 25 °F - 20 °F 73% 30.62 in 12 mi East 4.5 mph - -   Clear
3:20 AM 21.2 °F 13.6 °F 19.4 °F 93% 30.60 in - East 5.8 mph - N/A   Clear
3:50 AM 21.2 °F 13.6 °F 19.4 °F 93% 30.60 in - East 5.8 mph - N/A   Clear
4:00 AM 23 °F - 19 °F 77% 30.63 in 12 mi East 4.5 mph - -   Clear
4:20 AM 21.2 °F 13.6 °F 19.4 °F 93% 30.63 in - East 5.8 mph - N/A   Clear
4:50 AM 21.2 °F 13.6 °F 19.4 °F 93% 30.63 in - East 5.8 mph - N/A   Clear
5:00 AM 22 °F - 18 °F 80% 30.65 in 12 mi East 4.5 mph - -   Partly Cloudy
5:20 AM 19.4 °F 12.8 °F 17.6 °F 93% 30.63 in - East 4.6 mph - N/A   Clear
5:50 AM 19.4 °F 11.5 °F 17.6 °F 93% 30.66 in - East 5.8 mph - N/A   Clear
6:00 AM 21 °F - 18 °F 85% 30.67 in 12 mi East 4.5 mph - -   Clear
6:20 AM 19.4 °F 10.4 °F 17.6 °F 93% 30.66 in - East 6.9 mph - N/A   Clear
7:00 AM 20 °F - 18 °F 88% 30.68 in 12 mi ESE 4.5 mph - -   Clear
7:20 AM 17.6 °F 7.3 °F 17.6 °F 100% 30.66 in - East 8.1 mph - N/A   Clear
7:50 AM 17.6 °F 8.2 °F 15.8 °F 93% 30.66 in - East 6.9 mph - N/A   Clear
8:00 AM 19 °F - 17 °F 89% 30.69 in 12 mi ESE 4.5 mph - -   Partly Cloudy
8:20 AM 17.6 °F 8.2 °F 15.8 °F 93% 30.69 in - East 6.9 mph - N/A   Clear
8:50 AM 17.6 °F 9.3 °F 15.8 °F 93% 30.69 in - East 5.8 mph - N/A   Clear
9:00 AM 19 °F - 17 °F 91% 30.72 in 12 mi SE 4.5 mph - -   Clear
9:20 AM 17.6 °F 9.3 °F 15.8 °F 93% 30.71 in - ESE 5.8 mph - N/A   Clear
9:50 AM 17.6 °F 8.2 °F 17.6 °F 100% 30.71 in 6.2 mi ESE 6.9 mph - N/A   Mostly Cloudy
10:00 AM 20 °F - 18 °F 87% 30.74 in 12 mi SE 6.7 mph - -   Clear
10:20 AM 21.2 °F 13.6 °F 19.4 °F 93% 30.71 in 6.2 mi SE 5.8 mph - N/A   Mostly Cloudy
10:50 AM 21.2 °F 13.6 °F 19.4 °F 93% 30.71 in 6.2 mi SE 5.8 mph - N/A   Overcast
11:00 AM 20 °F - 18 °F 89% 30.75 in 12 mi SSE 6.7 mph - -   Partly Cloudy
11:20 AM 21.2 °F 12.6 °F 19.4 °F 93% 30.71 in 6.2 mi SE 6.9 mph - N/A   Overcast
11:50 AM 21.2 °F 12.6 °F 19.4 °F 93% 30.74 in 6.2 mi SSE 6.9 mph - N/A   Overcast
12:00 PM 22 °F - 19 °F 85% 30.76 in 12 mi SSE 6.7 mph - -   Clear
12:20 PM 23.0 °F 14.7 °F 21.2 °F 93% 30.74 in 6.2 mi South 6.9 mph - N/A   Mostly Cloudy
12:50 PM 23.0 °F 14.7 °F 21.2 °F 93% 30.74 in 6.2 mi SE 6.9 mph - N/A   Overcast
1:00 PM 24 °F - 20 °F 78% 30.77 in 12 mi South 6.7 mph - -   Clear
1:20 PM 23.0 °F 14.7 °F 21.2 °F 93% 30.74 in 6.2 mi SSE 6.9 mph - N/A   Overcast
1:50 PM 23.0 °F 13.9 °F 21.2 °F 93% 30.74 in 6.2 mi SSE 8.1 mph - N/A   Overcast
2:00 PM 24 °F - 19 °F 75% 30.78 in 12 mi SSE 4.5 mph - -   Partly Cloudy
2:20 PM 23.0 °F 14.7 °F 19.4 °F 86% 30.74 in 6.2 mi SSE 6.9 mph - N/A   Overcast
2:50 PM 23.0 °F 14.7 °F 19.4 °F 86% 30.77 in 6.2 mi SSE 6.9 mph - N/A   Overcast
3:20 PM 24.8 °F 16.9 °F 19.4 °F 80% 30.77 in 6.2 mi South 6.9 mph - N/A   Overcast
3:50 PM 23.0 °F 14.7 °F 19.4 °F 86% 30.77 in 6.2 mi SSE 6.9 mph - N/A   Overcast
4:00 PM 24 °F - 18 °F 71% 30.80 in 12 mi South 4.5 mph - -   Clear
4:20 PM 23.0 °F 15.8 °F 19.4 °F 86% 30.77 in 6.2 mi South 5.8 mph - N/A   Overcast
4:50 PM 24.8 °F 17.9 °F 19.4 °F 80% 30.77 in 6.2 mi South 5.8 mph - N/A   Overcast
5:00 PM 24 °F - 19 °F 72% 30.81 in 12 mi SSE 2.2 mph - -   Partly Cloudy
5:20 PM 23.0 °F 15.8 °F 19.4 °F 86% 30.77 in 6.2 mi South 5.8 mph - N/A   Mostly Cloudy
5:50 PM 23.0 °F 18.4 °F 17.6 °F 80% 30.80 in 6.2 mi South 3.5 mph - N/A   Mostly Cloudy
6:00 PM 24 °F - 18 °F 67% 30.81 in 12 mi SSW 4.5 mph - -   Clear
6:20 PM 23.0 °F - 19.4 °F 86% 30.80 in 6.2 mi Calm Calm - N/A   Mostly Cloudy
6:50 PM 21.2 °F - 19.4 °F 93% 30.80 in 6.2 mi SE 2.3 mph - N/A   Mostly Cloudy
7:00 PM 22 °F - 18 °F 78% 30.82 in 12 mi SE 2.2 mph - -   Clear
7:20 PM 21.2 °F 16.4 °F 17.6 °F 86% 30.80 in 6.2 mi ESE 3.5 mph - N/A   Scattered Clouds
7:50 PM 21.2 °F 16.4 °F 17.6 °F 86% 30.80 in 6.2 mi SE 3.5 mph - N/A   Partly Cloudy
8:00 PM 20 °F - 17 °F 84% 30.83 in 12 mi SSE 2.2 mph - -   Partly Cloudy
8:20 PM 19.4 °F 14.3 °F 17.6 °F 93% 30.80 in - SE 3.5 mph - N/A   Clear
8:50 PM 19.4 °F 12.8 °F 17.6 °F 93% 30.80 in - SE 4.6 mph - N/A   Clear
9:20 PM 19.4 °F 14.3 °F 17.6 °F 93% 30.80 in - SSE 3.5 mph - N/A   Clear
9:50 PM 17.6 °F 10.7 °F 17.6 °F 100% 30.80 in - SSE 4.6 mph - N/A   Clear
10:00 PM 18 °F - 16 °F 89% 30.84 in 12 mi SSW 2.2 mph - -   Clear
10:20 PM 17.6 °F 12.3 °F 15.8 °F 93% 30.80 in - South 3.5 mph - N/A   Clear
10:50 PM 17.6 °F - 15.8 °F 93% 30.83 in - Calm Calm - N/A   Clear
11:00 PM 18 °F - 16 °F 88% 30.85 in 12 mi SW 2.2 mph - -   Partly Cloudy
11:20 PM 17.6 °F - 15.8 °F 93% 30.83 in - Variable 1.2 mph - N/A   Clear
11:50 PM 17.6 °F - 15.8 °F 93% 30.83 in - Calm Calm - N/A   Clear